Voltar ao catálogo

STARLINK-32432

AtivoComunicaçõesVLEO
NORAD 61257·PAYLOAD·🇺🇸 United States

Lançado Sep 25, 2024 de Vandenberg Space Force Base

Loading…

Próximas Passagens (próximas 24 horas)

TLE

AtualizadoSource: CelesTrak SupGP

Época: Sep 14, 2026, 21:02 UTC

1 61257C 24175Q   26257.87687500  .00024275  00000+0  71765-3 0  2578
2 61257  53.1585  31.9993 0001105  79.9615 342.3323 15.34358760    11

Acompanhe STARLINK-32432 em tempo real com AllMySat

Download on the App Store